Time,TemperatureF,DewpointF,PressureIn,WindDirection,WindDirectionDegrees,WindSpeedMPH,WindSpeedGustMPH,Humidity,HourlyPrecipIn,Conditions,Clouds,dailyrainin,SoftwareType,DateUTC
2013-11-28 00:12:00,34.0,29.0,29.13,SW,230,6.0,6.0,82,0.00,,,1.02,,2013-11-28 05:12:00,
2013-11-28 00:22:00,34.0,29.0,29.13,SW,230,6.0,6.0,82,0.00,,,1.02,,2013-11-28 05:22:00,
2013-11-28 00:43:00,34.0,29.0,29.15,WSW,256,7.0,8.0,82,0.00,,,1.02,,2013-11-28 05:43:00,
2013-11-28 00:53:00,34.0,29.0,29.15,WSW,256,7.0,8.0,82,0.00,,,1.02,,2013-11-28 05:53:00,
2013-11-28 01:22:00,34.0,28.0,29.23,WSW,254,0.0,2.0,78,0.00,,,1.02,,2013-11-28 06:22:00,
2013-11-28 01:33:00,34.0,28.0,29.23,WSW,254,0.0,2.0,78,0.00,,,1.02,,2013-11-28 06:33:00,
2013-11-28 01:52:00,33.0,27.0,29.24,WNW,284,0.0,0.0,78,0.00,,,1.02,,2013-11-28 06:52:00,
2013-11-28 02:00:00,33.0,27.0,29.28,SW,216,6.0,7.0,77,0.00,,,1.02,,2013-11-28 07:00:00,
2013-11-28 02:22:00,33.0,27.0,29.28,SW,216,6.0,7.0,77,0.00,,,1.02,,2013-11-28 07:22:00,
2013-11-28 02:32:00,33.0,27.0,29.28,SW,216,6.0,7.0,77,0.00,,,1.02,,2013-11-28 07:32:00,
2013-11-28 02:42:00,33.0,27.0,29.28,SW,216,6.0,7.0,77,0.00,,,1.02,,2013-11-28 07:42:00,
2013-11-28 02:52:00,33.0,27.0,29.28,SW,216,6.0,7.0,77,0.00,,,1.02,,2013-11-28 07:52:00,
2013-11-28 05:23:00,28.0,17.0,29.43,West,268,8.0,11.0,64,0.00,,,1.02,,2013-11-28 10:23:00,
2013-11-28 05:33:00,28.0,17.0,29.43,West,268,8.0,11.0,64,0.00,,,1.02,,2013-11-28 10:33:00,
2013-11-28 05:43:00,28.0,17.0,29.43,West,268,8.0,11.0,64,0.00,,,1.02,,2013-11-28 10:43:00,
2013-11-28 05:53:00,28.0,17.0,29.43,West,268,8.0,11.0,64,0.00,,,1.02,,2013-11-28 10:53:00,
2013-11-28 06:12:00,27.0,17.0,29.48,West,265,2.0,14.0,66,0.00,,,1.02,,2013-11-28 11:12:00,
2013-11-28 06:22:00,27.0,17.0,29.48,West,265,2.0,14.0,66,0.00,,,1.02,,2013-11-28 11:22:00,
2013-11-28 06:42:00,25.0,14.0,29.52,WNW,294,0.0,16.0,62,0.00,,,1.02,,2013-11-28 11:42:00,
2013-11-28 06:52:00,25.0,14.0,29.52,WNW,294,0.0,16.0,62,0.00,,,1.02,,2013-11-28 11:52:00,
2013-11-28 07:02:00,25.0,14.0,29.52,WNW,294,0.0,16.0,62,0.00,,,1.02,,2013-11-28 12:02:00,
2013-11-28 07:22:00,25.0,13.0,29.56,WNW,287,5.0,21.0,60,0.00,,,1.02,,2013-11-28 12:22:00,
2013-11-28 07:32:00,25.0,13.0,29.56,WNW,287,5.0,21.0,60,0.00,,,1.02,,2013-11-28 12:32:00,
2013-11-28 07:42:00,25.0,13.0,29.56,WNW,287,5.0,21.0,60,0.00,,,1.02,,2013-11-28 12:42:00,
2013-11-28 07:52:00,25.0,13.0,29.56,WNW,287,5.0,21.0,60,0.00,,,1.02,,2013-11-28 12:52:00,
2013-11-28 09:22:00,25.0,13.0,29.71,WNW,282,7.0,8.0,60,0.00,,,1.02,,2013-11-28 14:22:00,
2013-11-28 09:42:00,26.0,12.0,29.71,NW,305,1.0,12.0,56,0.00,,,1.02,,2013-11-28 14:42:00,
2013-11-28 09:52:00,26.0,12.0,29.71,NW,305,1.0,12.0,56,0.00,,,1.02,,2013-11-28 14:52:00,
2013-11-28 10:02:00,26.0,12.0,29.71,NW,305,1.0,12.0,56,0.00,,,1.02,,2013-11-28 15:02:00,
2013-11-28 10:22:00,26.0,11.0,29.77,WNW,284,6.0,11.0,52,0.00,,,1.02,,2013-11-28 15:22:00,
2013-11-28 10:34:00,26.0,11.0,29.77,WNW,284,6.0,11.0,52,0.00,,,1.02,,2013-11-28 15:34:00,
2013-11-28 10:54:00,26.0,11.0,29.77,WNW,284,6.0,11.0,52,0.00,,,1.02,,2013-11-28 15:54:00,
2013-11-28 11:43:00,23.0,7.0,29.83,West,280,8.0,16.0,50,0.00,,,1.02,,2013-11-28 16:43:00,
2013-11-28 11:54:00,23.0,7.0,29.83,West,280,8.0,16.0,50,0.00,,,1.02,,2013-11-28 16:54:00,
2013-11-28 12:12:00,23.0,6.0,29.85,WSW,254,6.0,18.0,48,0.00,,,1.02,,2013-11-28 17:12:00,
2013-11-28 12:23:00,23.0,6.0,29.85,WSW,254,6.0,18.0,48,0.00,,,1.02,,2013-11-28 17:23:00,
2013-11-28 12:42:00,24.0,8.0,29.88,WSW,241,11.0,11.0,49,0.00,,,1.02,,2013-11-28 17:42:00,
2013-11-28 12:52:00,24.0,8.0,29.88,WSW,241,11.0,11.0,49,0.00,,,1.02,,2013-11-28 17:52:00,
2013-11-28 13:02:00,24.0,8.0,29.88,WSW,241,11.0,11.0,49,0.00,,,1.02,,2013-11-28 18:02:00,
2013-11-28 13:22:00,25.0,7.0,29.90,WSW,239,8.0,12.0,46,0.00,,,1.02,,2013-11-28 18:22:00,
2013-11-28 13:33:00,25.0,7.0,29.90,WSW,239,8.0,12.0,46,0.00,,,1.02,,2013-11-28 18:33:00,
2013-11-28 13:52:00,25.0,4.0,29.91,West,280,5.0,13.0,40,0.00,,,1.02,,2013-11-28 18:52:00,
2013-11-28 14:02:00,25.0,4.0,29.91,West,280,5.0,13.0,40,0.00,,,1.02,,2013-11-28 19:02:00,
2013-11-28 14:11:00,25.0,4.0,29.91,West,280,5.0,13.0,40,0.00,,,1.02,,2013-11-28 19:11:00,
2013-11-28 14:22:00,25.0,4.0,29.91,West,280,5.0,13.0,40,0.00,,,1.02,,2013-11-28 19:22:00,
2013-11-28 15:12:00,26.0,3.0,29.95,WSW,237,6.0,11.0,36,0.00,,,1.02,,2013-11-28 20:12:00,
2013-11-28 15:22:00,26.0,3.0,29.95,WSW,237,6.0,11.0,36,0.00,,,1.02,,2013-11-28 20:22:00,
2013-11-28 15:32:00,26.0,3.0,29.95,WSW,237,6.0,11.0,36,0.00,,,1.02,,2013-11-28 20:32:00,
2013-11-28 15:52:00,24.0,1.0,29.98,WSW,243,0.0,7.0,36,0.00,,,0.38,,2013-11-28 20:52:00,
2013-11-28 16:21:00,23.0,2.0,30.01,SW,217,7.0,11.0,40,0.00,,,0.35,,2013-11-28 21:21:00,
2013-11-28 16:43:00,22.0,1.0,30.01,SSW,206,12.0,22.0,39,0.00,,,0.35,,2013-11-28 21:43:00,
2013-11-28 16:53:00,22.0,1.0,30.01,SSW,206,12.0,22.0,39,0.00,,,0.35,,2013-11-28 21:53:00,
2013-11-28 17:23:00,22.0,2.0,30.06,West,263,4.0,7.0,42,0.00,,,0.35,,2013-11-28 22:23:00,
2013-11-28 17:33:00,22.0,2.0,30.06,West,263,4.0,7.0,42,0.00,,,0.35,,2013-11-28 22:33:00,
2013-11-28 17:53:00,22.0,2.0,30.06,West,263,4.0,7.0,42,0.00,,,0.35,,2013-11-28 22:53:00,
2013-11-28 18:52:00,20.0,4.0,30.13,SW,232,1.0,6.0,49,0.00,,,0.08,,2013-11-28 23:52:00,
2013-11-28 19:02:00,20.0,4.0,30.13,SW,232,1.0,6.0,49,0.00,,,0.08,,2013-11-29 00:02:00,
2013-11-28 19:21:00,20.0,4.0,30.15,WNW,292,2.0,11.0,48,0.00,,,0.01,,2013-11-29 00:21:00,
2013-11-28 19:52:00,19.0,5.0,30.15,NE,38,0.0,2.0,53,0.00,,,0.01,,2013-11-29 00:52:00,
2013-11-28 20:12:00,19.0,6.0,30.15,WNW,282,0.0,4.0,55,0.00,,,0.01,,2013-11-29 01:12:00,
2013-11-28 20:22:00,19.0,6.0,30.15,WNW,282,0.0,4.0,55,0.00,,,0.01,,2013-11-29 01:22:00,
2013-11-28 20:32:00,19.0,6.0,30.15,WNW,282,0.0,4.0,55,0.00,,,0.01,,2013-11-29 01:32:00,
2013-11-28 20:52:00,18.0,5.0,30.19,WSW,247,0.0,2.0,55,0.00,,,0.00,,2013-11-29 01:52:00,
2013-11-28 21:22:00,18.0,6.0,30.21,West,272,0.0,2.0,59,0.00,,,0.00,,2013-11-29 02:22:00,
2013-11-28 21:52:00,17.0,5.0,30.22,WNW,288,0.0,3.0,58,0.00,,,0.00,,2013-11-29 02:52:00,
2013-11-28 22:21:00,16.0,5.0,30.23,WNW,292,0.0,4.0,60,0.00,,,0.00,,2013-11-29 03:21:00,
2013-11-28 22:54:00,16.0,5.0,30.24,West,268,0.0,2.0,60,0.00,,,0.00,,2013-11-29 03:54:00,
2013-11-28 23:13:00,16.0,5.0,30.24,NW,305,1.0,2.0,60,0.00,,,0.00,,2013-11-29 04:13:00,
2013-11-28 23:23:00,16.0,5.0,30.24,NW,305,1.0,2.0,60,0.00,,,0.00,,2013-11-29 04:23:00,
2013-11-28 23:33:00,16.0,5.0,30.24,NW,305,1.0,2.0,60,0.00,,,0.00,,2013-11-29 04:33:00,
2013-11-28 23:43:00,16.0,5.0,30.24,NW,305,1.0,2.0,60,0.00,,,0.00,,2013-11-29 04:43:00,